EW8320 Weather Reports


Display with metric or nautical units.
time (UTC)temp
F
wind
direction
speed
MPH
gust
MPH
rain 1hr
in
rain 24hr
in
rain mn
in
humidity
%
barometer
mb
20260504034223 53 360 0.0 0.0 0.00 0.00 0.00 64 1015.5
20260504025424 59 315 0.0 0.0 0.00 0.00 0.00 54 1015.2
20260504024523 61 315 0.0 0.0 0.00 0.00 0.00 51 1015.1
20260504023521 62 315 0.0 0.0 0.00 0.00 0.00 48 1015.0
20260504022521 63 319 0.0 0.0 0.00 0.00 0.00 47 1015.0
20260504021521 64 255 0.0 0.0 0.00 0.00 0.00 46 1015.1
20260504020522 65 247 0.0 0.0 0.00 0.00 0.00 43 1014.8
20260504015524 66 247 0.0 0.0 0.00 0.00 0.00 40 1014.8
20260504014522 67 30 0.0 0.0 0.00 0.00 0.00 39 1014.7
20260504013522 68 22 0.0 0.0 0.00 0.00 0.00 40 1014.8
20260504013422 68 22 0.0 0.0 0.00 0.00 0.00 40 1014.9
20260504012423 68 47 0.0 0.0 0.00 0.00 0.00 41 1014.9
20260504011421 68 107 0.0 0.0 0.00 0.00 0.00 40 1014.8
20260504005422 68 326 0.0 0.0 0.00 0.00 0.00 38 1015.0
20260504004424 69 296 0.0 0.0 0.00 0.00 0.00 36 1015.0
20260504003421 71 112 0.0 0.0 0.00 0.00 0.00 34 1015.0
20260504002424 73 68 0.0 0.0 0.00 0.00 0.00 31 1015.1
20260504001421 74 87 0.0 0.0 0.00 0.00 0.00 28 1015.0
20260503235422 75 47 0.0 0.0 0.00 0.00 0.00 27 1015.0
20260503234423 75 356 0.0 0.0 0.00 0.00 0.00 28 1015.2
20260503234323 74 348 0.0 0.0 0.00 0.00 0.00 28 1015.2
20260503233421 74 353 0.0 0.0 0.00 0.00 0.00 27 1015.3
20260503232422 74 51 0.0 0.0 0.00 0.00 0.00 27 1015.4
20260503231521 74 95 0.0 0.0 0.00 0.00 0.00 26 1015.5
20260503230522 74 346 0.0 0.0 0.00 0.00 0.00 25 1015.6
20260503225522 73 35 0.0 0.0 0.00 0.00 0.00 26 1015.7
20260503224524 73 313 0.0 0.0 0.00 0.00 0.00 27 1015.8
20260503222625 73 325 0.0 0.0 0.00 0.00 0.00 28 1016.0
20260503221722 73 357 0.0 0.0 0.00 0.00 0.00 28 1016.1
20260503220723 73 157 0.0 0.0 0.00 0.00 0.00 27 1016.3
20260503215722 72 342 0.0 0.0 0.00 0.00 0.00 27 1016.5
20260503214723 72 19 0.0 0.0 0.00 0.00 0.00 28 1016.6
20260503213723 73 28 0.0 0.0 0.00 0.00 0.00 29 1016.7
20260503213640 73 346 0.0 0.0 0.00 0.00 0.00 28 1016.8
20260503212624 72 296 0.0 0.0 0.00 0.00 0.00 28 1016.9
20260503212522 72 307 0.0 0.0 0.00 0.00 0.00 27 1016.9
20260503205621 72 18 0.0 0.0 0.00 0.00 0.00 29 1017.2
20260503204522 72 77 0.0 0.0 0.00 0.00 0.00 31 1017.3
20260503203522 72 201 0.0 0.0 0.00 0.00 0.00 32 1017.6
20260503202521 72 65 0.0 0.0 0.00 0.00 0.00 31 1017.7
20260503201522 71 311 0.0 0.0 0.00 0.00 0.00 30 1017.7
20260503200620 72 75 0.0 0.0 0.00 0.00 0.00 32 1017.9
20260503200521 72 102 0.0 0.0 0.00 0.00 0.00 31 1017.7
20260503195523 71 302 0.0 0.0 0.00 0.00 0.00 31 1017.9
20260503194522 72 298 0.0 0.0 0.00 0.00 0.00 31 1018.1
20260503193524 63 321 0.0 0.0 0.00 0.00 0.00 30 1018.2
20260503192621 57 208 0.0 0.0 0.00 0.00 0.00 28 1018.3
20260503191622 59 289 0.0 0.0 0.00 0.00 0.00 27 1018.4
20260503190623 60 328 0.0 0.0 0.00 0.00 0.00 28 1018.5
20260503185621 63 202 0.0 0.0 0.00 0.00 0.00 27 1018.5
20260503184622 63 266 0.0 0.0 0.00 0.00 0.00 29 1018.7
20260503183623 62 106 0.0 0.0 0.00 0.00 0.00 28 1018.6
20260503181621 67 107 0.0 0.0 0.00 0.00 0.00 33 1019.1
20260503180621 65 309 0.0 0.0 0.00 0.00 0.00 35 1019.2
20260503175720 62 67 0.0 0.0 0.00 0.00 0.00 37 1019.1
20260503174721 55 67 0.0 0.0 0.00 0.00 0.00 40 1019.3
20260503173621 58 101 0.0 0.0 0.00 0.00 0.00 46 1019.3
20260503172621 57 157 0.0 0.0 0.00 0.00 0.00 48 1019.3
20260503171622 56 143 0.0 0.0 0.00 0.00 0.00 51 1019.4
20260503110220 43 265 0.0 0.0 0.00 0.00 0.00 73 1020.2
20260503100221 41 254 0.0 0.0 0.00 0.00 0.00 73 1019.9
20260503081522 47 262 0.0 0.0 0.00 0.00 0.00 67 1020.0
20260503080621 47 263 0.0 0.0 0.00 0.00 0.00 66 1020.0
20260503071621 47 246 0.0 0.0 0.00 0.00 0.00 67 1020.0
20260503070621 48 257 0.0 0.0 0.00 0.00 0.00 65 1019.9
20260503054715 52 260 0.0 0.0 0.00 0.00 0.00 57 1020.0
20260503053713 52 251 0.0 0.0 0.00 0.00 0.00 57 1019.8
20260503052714 52 277 0.0 0.0 0.00 0.00 0.00 58 1019.9
20260503050812 53 275 0.0 0.0 0.00 0.00 0.00 56 1019.7
20260503045813 53 259 0.0 0.0 0.00 0.00 0.00 56 1019.9
20260503044912 53 256 0.0 0.0 0.00 0.00 0.00 56 1019.7
20260503043913 51 272 0.0 0.0 0.00 0.00 0.00 59 1019.7
20260503042915 53 234 0.0 0.0 0.00 0.00 0.00 55 1019.6
20260503042012 53 253 0.0 0.0 0.00 0.00 0.00 58 1019.6
20260503041015 51 257 0.0 0.0 0.00 0.00 0.00 61 1019.3
20260503040023 51 270 0.0 0.0 0.00 0.00 0.00 62 1019.4
20260503035112 50 226 0.0 0.0 0.00 0.00 0.00 62 1019.1